Weather History for Indianapolis, IN

Change the Weather History Date:

Friday, March 28, 2014

  Actual Average (KEYE) Record (KEYE)
Temperature  
Mean Temperature 44 °F 47 °F  
Max Temperature 52 °F 56 °F 77 °F (2004)
Min Temperature 36 °F 38 °F 23 °F (2001)
Degree Days  
Heating Degree Days 21 18  
Month to date heating degree days 646  
Since 1 July heating degree days 4771  
Cooling Degree Days 0 0  
Month to date cooling degree days 0  
Year to date cooling degree days 0  
Moisture  
Dew Point 38 °F    
Average Humidity 78    
Maximum Humidity 85    
Minimum Humidity 66    
Precipitation  
Precipitation 0.07 in 0.14 in 1.12 in (2009)
Month to date precipitation 2.88  
Year to date precipitation 7.22  
Sea Level Pressure  
Sea Level Pressure 29.92 in    
Wind  
Wind Speed 17 mph (West)    
Max Wind Speed 25 mph    
Max Gust Speed 39 mph    
Visibility 9 miles    
Events Rain    
T = Trace of Precipitation, MM = Missing Value Source: NWS Daily Summary

Daily Weather History Graph

Daily Weather History Graph

Search for Another Location

Airport:

Trip Planner

Search our weather history database for the weather conditions in past years. The results will help you decide how hot, cold, wet, or windy it might be!

Date:

Astronomy

Mar. 28, 2014 Rise Set
Actual Time 7:35 AM EDT 8:05 PM EDT
Civil Twilight 7:08 AM EDT 8:32 PM EDT
Nautical Twilight 6:36 AM EDT 9:04 PM EDT
Astronomical Twilight 6:03 AM EDT 9:37 PM EDT
Moon 6:05 AM EDT (3/28) 6:01 PM EDT (3/28)
Length of Visible Light 13h 24m
Length of Day
12h 29m
Waning Crescent, 6% of the Moon is Illuminated
Mar 28
Waning Crescent
Mar 30
New
Apr 7
First Quarter
Apr 15
Full
Apr 22
Last Quarter

Hourly Weather History & Observations

Time (EDT) Temp. Windchill Dew Point Humidity Pressure Visibility Wind Dir Wind Speed Gust Speed Precip Events Conditions
12:15 AM 48.7 °F - 40.5 °F 73% 29.71 in 10.0 mi South 21.9 mph 28.8 mph N/A   Overcast
12:35 AM 50.0 °F - 41.0 °F 71% 29.71 in 10.0 mi SSW 24.2 mph 32.2 mph N/A Rain Light Rain
12:55 AM 50.9 °F - 41.5 °F 70% 29.71 in 10.0 mi SSW 24.2 mph 29.9 mph N/A   Overcast
1:15 AM 51.4 °F - 42.1 °F 70% 29.71 in 10.0 mi South 23.0 mph 29.9 mph N/A   Overcast
1:35 AM 52.0 °F - 42.4 °F 70% 29.71 in 10.0 mi SSW 20.7 mph 28.8 mph N/A   Overcast
1:55 AM 50.4 °F - 43.9 °F 78% 29.72 in 7.0 mi SSW 11.5 mph 25.3 mph 0.02 in Rain Light Rain
2:15 AM 50.2 °F - 44.6 °F 81% 29.73 in 5.0 mi SSW 15.0 mph 21.9 mph 0.03 in Rain Rain
2:35 AM 50.0 °F - 45.1 °F 83% 29.66 in 10.0 mi South 24.2 mph 33.4 mph 0.05 in Rain Light Rain
2:55 AM 50.4 °F - 45.1 °F 82% 29.66 in 10.0 mi South 24.2 mph 32.2 mph 0.05 in   Mostly Cloudy
3:15 AM 50.9 °F - 45.5 °F 82% 29.63 in 10.0 mi South 25.3 mph 35.7 mph N/A   Light Drizzle
3:35 AM 50.9 °F - 45.0 °F 80% 29.66 in 10.0 mi SSW 24.2 mph 34.5 mph N/A   Scattered Clouds
3:55 AM 50.4 °F - 44.8 °F 81% 29.66 in 10.0 mi South 24.2 mph 32.2 mph N/A   Clear
4:15 AM 50.4 °F - 45.0 °F 82% 29.66 in 10.0 mi South 18.4 mph 39.1 mph N/A   Scattered Clouds
4:35 AM 50.0 °F - 45.0 °F 83% 29.65 in 10.0 mi South 16.1 mph 24.2 mph N/A   Mostly Cloudy
4:55 AM 49.6 °F - 44.6 °F 83% 29.65 in 10.0 mi South 12.7 mph - N/A   Overcast
5:15 AM 50.0 °F - 45.0 °F 83% 29.66 in 10.0 mi South 16.1 mph 19.6 mph N/A   Overcast
5:35 AM 50.5 °F - 44.8 °F 81% 29.66 in 10.0 mi SSW 12.7 mph 25.3 mph N/A   Overcast
5:55 AM 51.1 °F - 44.6 °F 78% 29.67 in 10.0 mi SSW 17.3 mph 26.5 mph N/A   Overcast
6:15 AM 51.6 °F - 44.8 °F 77% 29.68 in 10.0 mi SW 17.3 mph 24.2 mph N/A   Overcast
6:35 AM 51.8 °F - 45.5 °F 79% 29.69 in 10.0 mi SW 19.6 mph 31.1 mph N/A   Overcast
6:55 AM 51.1 °F - 44.4 °F 78% 29.72 in 10.0 mi West 23.0 mph 29.9 mph N/A   Overcast
7:15 AM 48.7 °F - 41.2 °F 75% 29.73 in 10.0 mi West 16.1 mph 25.3 mph N/A   Overcast
7:35 AM 46.4 °F 39.8 °F 39.7 °F 78% 29.76 in 10.0 mi West 16.1 mph 24.2 mph N/A   Overcast
8:15 AM 43.2 °F 35.3 °F 37.2 °F 80% 29.80 in 10.0 mi West 17.3 mph 27.6 mph N/A   Overcast
8:35 AM 43.0 °F 34.2 °F 37.0 °F 80% 29.82 in 10.0 mi West 20.7 mph 28.8 mph N/A   Overcast
8:55 AM 42.8 °F 34.3 °F 36.7 °F 79% 29.84 in 10.0 mi West 19.6 mph 27.6 mph N/A   Overcast
9:15 AM 42.1 °F 32.3 °F 36.1 °F 79% 29.86 in 10.0 mi West 24.2 mph 33.4 mph N/A   Overcast
9:35 AM 41.9 °F 33.7 °F 35.8 °F 79% 29.89 in 10.0 mi West 17.3 mph 26.5 mph N/A   Overcast
9:55 AM 41.7 °F 34.1 °F 36.0 °F 80% 29.90 in 10.0 mi West 15.0 mph 26.5 mph N/A   Overcast
10:15 AM 41.4 °F 31.9 °F 36.0 °F 81% 29.91 in 10.0 mi WSW 21.9 mph 27.6 mph N/A   Overcast
10:35 AM 41.0 °F 32.5 °F 35.6 °F 81% 29.92 in 7.0 mi West 17.3 mph 24.2 mph N/A   Overcast
10:55 AM 41.2 °F 33.4 °F 35.8 °F 81% 29.93 in 10.0 mi WSW 15.0 mph 20.7 mph N/A   Overcast
11:15 AM 41.4 °F 33.3 °F 35.2 °F 79% 29.96 in 10.0 mi WSW 16.1 mph 23.0 mph N/A   Overcast
11:35 AM 41.2 °F 33.7 °F 35.6 °F 81% 29.97 in 2.5 mi WSW 13.8 mph 21.9 mph N/A   Drizzle
11:55 AM 41.0 °F 34.3 °F 36.3 °F 83% 29.99 in 1.5 mi West 11.5 mph 18.4 mph N/A   Drizzle
12:15 PM 41.0 °F 34.3 °F 36.5 °F 84% 30.01 in 3.0 mi West 11.5 mph 21.9 mph N/A   Overcast
12:35 PM 41.0 °F 33.1 °F 36.5 °F 84% 30.01 in 5.0 mi West 15.0 mph 20.7 mph N/A   Haze
12:55 PM 41.0 °F 35.8 °F 36.7 °F 85% 30.02 in 4.0 mi WNW 8.1 mph 16.1 mph N/A   Overcast
1:15 PM 41.0 °F 33.9 °F 36.7 °F 85% 30.03 in 7.0 mi West 12.7 mph - N/A   Overcast
1:35 PM 41.7 °F 36.7 °F 37.0 °F 83% 30.03 in 10.0 mi WNW 8.1 mph - N/A   Overcast
1:55 PM 42.1 °F 37.1 °F 37.4 °F 83% 30.03 in 10.0 mi WNW 8.1 mph - N/A   Overcast
2:15 PM 42.4 °F 36.5 °F 36.9 °F 81% 30.03 in 10.0 mi NW 10.4 mph - N/A   Overcast
2:35 PM 43.0 °F 37.2 °F 36.7 °F 78% 30.04 in 10.0 mi WNW 10.4 mph - N/A   Overcast
2:55 PM 43.0 °F 37.2 °F 37.2 °F 80% 30.06 in 10.0 mi NW 10.4 mph - N/A   Overcast
3:15 PM 42.8 °F 38.0 °F 36.3 °F 78% 30.07 in 10.0 mi WNW 8.1 mph - N/A   Overcast
3:35 PM 43.0 °F 37.2 °F 35.8 °F 76% 30.08 in 10.0 mi NW 10.4 mph - N/A   Overcast
3:55 PM 43.7 °F 39.1 °F 35.8 °F 74% 30.07 in 10.0 mi WNW 8.1 mph - N/A   Overcast
4:15 PM 43.7 °F 38.6 °F 36.1 °F 75% 30.07 in 10.0 mi NW 9.2 mph - N/A   Overcast
4:35 PM 44.6 °F 40.7 °F 36.1 °F 72% 30.07 in 10.0 mi WNW 6.9 mph - N/A   Overcast
4:55 PM 44.8 °F 39.9 °F 36.0 °F 71% 30.07 in 10.0 mi NNW 9.2 mph - N/A   Overcast
5:15 PM 45.5 °F 39.9 °F 36.0 °F 69% 30.07 in 10.0 mi NNW 11.5 mph - N/A   Overcast
5:35 PM 46.2 °F 40.5 °F 35.8 °F 67% 30.06 in 10.0 mi NNW 12.7 mph 18.4 mph N/A   Overcast
5:55 PM 45.7 °F 40.2 °F 35.2 °F 67% 30.06 in 10.0 mi North 11.5 mph 17.3 mph N/A   Mostly Cloudy
6:15 PM 46.2 °F 39.5 °F 35.2 °F 66% 30.05 in 10.0 mi North 16.1 mph - N/A   Scattered Clouds
6:35 PM 45.1 °F 39.5 °F 35.2 °F 68% 30.05 in 10.0 mi North 11.5 mph 19.6 mph N/A   Scattered Clouds
6:55 PM 44.1 °F 37.7 °F 34.5 °F 69% 30.05 in 10.0 mi North 12.7 mph 20.7 mph N/A   Scattered Clouds
7:15 PM 42.8 °F 37.0 °F 34.3 °F 72% 30.06 in 10.0 mi NNE 10.4 mph - N/A   Scattered Clouds
7:35 PM 41.9 °F 38.2 °F 33.8 °F 73% 30.08 in 10.0 mi NNE 5.8 mph - N/A   Scattered Clouds
7:55 PM 40.1 °F - 32.7 °F 75% 30.10 in 10.0 mi Calm Calm - N/A   Scattered Clouds
8:15 PM 40.6 °F 37.5 °F 33.3 °F 75% 30.11 in 10.0 mi NNE 4.6 mph - N/A   Mostly Cloudy
8:35 PM 40.3 °F 35.5 °F 33.4 °F 77% 30.12 in 10.0 mi NE 6.9 mph - N/A   Overcast
8:55 PM 40.5 °F 35.8 °F 33.3 °F 75% 30.12 in 10.0 mi NE 6.9 mph - N/A   Mostly Cloudy
9:15 PM 39.2 °F 35.0 °F 32.5 °F 77% 30.12 in 10.0 mi ENE 5.8 mph - N/A   Scattered Clouds
9:35 PM 38.5 °F 34.1 °F 32.0 °F 78% 30.13 in 10.0 mi NE 5.8 mph - N/A   Clear
9:55 PM 36.5 °F 33.9 °F 31.1 °F 81% 30.14 in 10.0 mi NE 3.5 mph - N/A   Clear
10:15 PM 37.2 °F 32.6 °F 31.8 °F 81% 30.15 in 10.0 mi NE 5.8 mph - N/A   Mostly Cloudy
10:35 PM 38.3 °F 32.5 °F 32.0 °F 78% 30.14 in 10.0 mi NE 8.1 mph - N/A   Overcast
10:55 PM 38.3 °F 31.4 °F 32.0 °F 78% 30.14 in 10.0 mi NE 10.4 mph - N/A   Overcast
11:15 PM 37.9 °F 30.0 °F 31.8 °F 79% 30.13 in 10.0 mi NE 12.7 mph - N/A   Overcast
11:35 PM 37.4 °F 30.8 °F 31.6 °F 80% 30.14 in 10.0 mi NE 9.2 mph - N/A   Overcast
11:55 PM 37.6 °F 29.6 °F 30.7 °F 76% 30.11 in 10.0 mi NE 12.7 mph - N/A   Overcast